Change the Weather History Date:

Sunday, October 7, 2012

  Actual Average Record
Temperature  
Mean Temperature 51 °F -  
Max Temperature 60 °F - - ()
Min Temperature 42 °F - - ()
Degree Days  
Heating Degree Days 14    
Growing Degree Days 1 (Base 50)    
Moisture  
Dew Point 47 °F    
Average Humidity 85    
Maximum Humidity 100    
Minimum Humidity 55    
Precipitation  
Precipitation 0.00 in - - ()
Sea Level Pressure  
Sea Level Pressure 29.94 in    
Wind  
Wind Speed 9 mph ()    
Max Wind Speed 18 mph    
Max Gust Speed 30 mph    
Visibility 5.2 miles    
Events Rain    
T = Trace of Precipitation, MM = Missing Value Source: Averaged Metar Reports

Daily Weather History Graph

Daily Weather History Graph

Search for Another Location

Airport or City:

Trip Planner

Search our weather history database for the weather conditions in past years. The results will help you decide how hot, cold, wet, or windy it might be!

Date:

Astronomy

Oct. 07, 2012 Rise Set
Actual Time 7:04 AM CEST 6:21 PM CEST
Civil Twilight 6:32 AM CEST 6:52 PM CEST
Nautical Twilight 5:55 AM CEST 7:29 PM CEST
Astronomical Twilight 5:18 AM CEST 8:06 PM CEST
Moon 10:54 PM CEST (10/7) 1:52 PM CEST (10/7)
Length of Visible Light 12h 20m
Length of Day
11h 16m
Waning Gibbous, 58% of the Moon is Illuminated
Oct 7
Waning Gibbous
Oct 8
Last Quarter
Oct 15
New
Oct 22
First Quarter
Oct 29
Full

Hourly Weather History & Observations

Time (CEST) Temp. Windchill Dew Point Humidity Pressure Visibility Wind Dir Wind Speed Gust Speed Precip Events Conditions
12:00 AM 60.8 °F - 44.6 °F 55% 29.95 in - West 8.1 mph - N/A   Clear
1:00 AM 60.8 °F - 46.4 °F 59% 29.95 in - WNW 11.5 mph - N/A   Clear
3:00 AM 59.0 °F - 48.2 °F 67% 29.95 in - West 9.2 mph - N/A   Clear
4:00 AM 59.0 °F - 48.2 °F 67% 29.95 in - West 10.4 mph - N/A   Clear
5:00 AM 57.2 °F - 50.0 °F 77% 29.92 in - West 9.2 mph - N/A   Clear
6:00 AM 57.2 °F - 50.0 °F 77% 29.92 in - West 9.2 mph - N/A   Clear
7:00 AM 55.4 °F - 51.8 °F 88% 29.92 in 6.2 mi WSW 6.9 mph - N/A Rain Light Rain
8:00 AM 55.4 °F - 51.8 °F 88% 29.89 in 6.2 mi SW 8.1 mph - N/A Rain Light Rain
9:00 AM 55.4 °F - 53.6 °F 94% 29.89 in 6.2 mi SW 8.1 mph - N/A Rain Light Rain
11:00 AM 55.4 °F - 53.6 °F 94% 29.86 in 5.6 mi SSW 10.4 mph - N/A Rain Light Rain
12:00 PM 55.4 °F - 55.4 °F 100% 29.83 in 5.6 mi SSW 6.9 mph - N/A Rain Light Rain
1:00 PM 55.4 °F - 55.4 °F 100% 29.83 in 2.8 mi SW 6.9 mph - N/A Rain Rain
2:00 PM 48.2 °F - 48.2 °F 100% 29.83 in 2.8 mi NNW 12.7 mph - N/A Rain Light Rain
3:00 PM 46.4 °F 39.2 °F 44.6 °F 93% 29.89 in 2.8 mi North 18.4 mph 29.9 mph N/A Rain Rain
4:00 PM 44.6 °F 38.1 °F 42.8 °F 93% 29.89 in 6.2 mi NNW 13.8 mph - N/A   Mostly Cloudy
5:00 PM 46.4 °F 41.1 °F 42.8 °F 87% 29.98 in 6.2 mi NNW 11.5 mph - N/A   Mostly Cloudy
6:00 PM 46.4 °F 41.9 °F 42.8 °F 87% 30.01 in 6.2 mi NW 9.2 mph - N/A   Partly Cloudy
7:00 PM 44.6 °F 38.4 °F 42.8 °F 93% 30.04 in - NW 12.7 mph - N/A   Clear
8:00 PM 44.6 °F 37.8 °F 42.8 °F 93% 30.04 in - WNW 15.0 mph - N/A   Clear
9:00 PM 42.8 °F 35.8 °F 41.0 °F 93% 30.06 in - WNW 13.8 mph - N/A   Clear
10:00 PM 44.6 °F 38.4 °F 41.0 °F 87% 30.06 in - WNW 12.7 mph - N/A   Clear
11:00 PM 44.6 °F 38.4 °F 41.0 °F 87% 30.09 in - NW 12.7 mph - N/A   Clear